DELTA 1 DEB

Satellite information

Favourite Embed

Satellite Type and Status

DEBRISIN ORBIT

Key statistics

Satellite DELTA 1 DEB at a glance.

Uptime

17939

Days in orbit

Revolutions

≈ 12.0

Per day

Orbit

SSO

Sun Synchronous Orbit

Inclination

101.9

Latest

Satellite identification and parameters

Extended collection of information and parameters for DELTA 1 DEB.

Object identification

Identified? True

Debris? True

Object name: DELTA 1 DEB

International designator: 1976-077BE

Object number (NORAD): 10757

Object ID (CCSDS): 10757

Country: UNITED STATES OF AMERICA (US)

Current information (Y/N): Y

RCS size: SMALL

Orbital parameters

Period: 119.957 minutes

Inclination: 101.9378 deg

SMA: 8057.085 km

Apoapsis: 1871.137 km

Periapsis: 1486.764 km

RAAN: 318.3695 deg

Eccentricy: 0.02385312

Argument of periapsis: 172.6496 deg

Mean anomaly: 217.2665 deg

Mean motion: 12.00427212 rev/day

Mean motion (dot): 0.00000873 rev/day2

B* drag term: 0.010341874 1/REarth

Two-line elements (TLE)

Creation date: Sept. 8, 2025, 9:49 a.m.

Reference frame: TEME

Reference center: EARTH

Epoch: Sept. 8, 2025, 3:20 a.m. UTC

TLE line 0: 0 DELTA 1 DEB

TLE line 1: 1 10757U 76077BE 25251.13947417 .00000873 00000-0 10342-1 0 9997

TLE line 2: 2 10757 101.9378 318.3695 0238531 172.6496 217.2665 12.00427212149849

Live tracking on map

Real-time ground track for satellite DELTA 1 DEB.

In-orbit conjunctions

A list of the most updated potential collisions computed for object DELTA 1 DEB.

Target Orbit TCA Probability of collision Miss distance Type
COSMOS 1055 LEO 2024-09-29 20:51:22 0.0001944638 442.0 (m) PAYLOAD

Associated space launch

Meteorological satellite using radiometric imaging

DELTA 1 DEB was lifted into orbit during the mission ‘Delta 2310 | NOAA 5’, on board a Delta 2310 space rocket.

The launch took place on July 29, 1976, 5:07 p.m. from Space Launch Complex 2W.

For more information about the launch, click the button.

Launch to space Delta 2310 | NOAA 5
Delta 2310 | NOAA 5

Agency: N/A

Status: Launch Successful

Launch date: July 29, 1976, 5:07 p.m. UTC

Rocket: Delta 2310

Launch pad: Space Launch Complex 2W

Location: Vandenberg SFB, CA, USA

...

Latest news about this satellite

There are no fresh news available about this satellite. Check back as we update our databases every day.


Newsletter sign-up

Weekly statistics, charts and insights to help you stay on top of the space industry.